Chan Gurney Municipal Airport
KYKN : now visible

Airfield :











YOU CAN JOIN US ON...

 
LOGIN :

Register | Disclaimer

   EN    FR    IT 

 









Legend :    VFR   Marginal VFR   IFR   Intensive IFR   Very Intensive IFR
Visi :
Ceiling :
>= 8 km
>= 3000ft
5 to 8 km
1000 to 3000 ft
1500m to 5 km
500 to 1000 ft
800 to 1500m
200 to 500 ft
< 800m
< 200 ft
Symbols :   Thunderstorms  Fog  Heavy snow  Heavy precipitations  Wind > 20 kt






- Airport Elevation : 1306 ft


KYKN - Chan Gurney Municipal

CURRENT METAR :
  • 222256Z AUTO 06005KT 10SM FEW080 SCT110 29/16 A2972 RMK AO2 SLP067 T02940156

EXPIRED METARs :
  • 222156Z AUTO VRB04KT 10SM BKN080 BKN100 30/15 A2973 RMK AO2 SLP072 T03000150
  • 222056Z AUTO 13007KT 10SM FEW090 30/14 A2974 RMK AO2 SLP075 T03000144 56018

TAF N/A
KZMP FIR / North America



MET'MAP, your aeronautical weather chart ! - Copyright ORBIFLY December 2007 - Disclaimer

ORBIFLY MET'MAP TEAM :

Programming & Development : Alexandra Zaïnal
Concept & original design : Baudouin d'Aumeries
Assistance for programming : Marc-Olivier Méhu
Technical & hardware support : Manuel Goepfert

Contact : metmap@orbifly.com




SOURCES & CREDITS :

   NOAA       Earth
Advisory